Index of /20260424/WXO-DD/model_gdps/15km/12/192
Name Last modified Size Description
Parent Directory -
20260424T12Z_MSC_GDPS_AbsoluteVorticity_IsbL-0200_LatLon0.15_PT192H.grib2 2026-04-24 16:35 1.4M
20260424T12Z_MSC_GDPS_AbsoluteVorticity_IsbL-0250_LatLon0.15_PT192H.grib2 2026-04-24 16:35 1.6M
20260424T12Z_MSC_GDPS_AbsoluteVorticity_IsbL-0500_LatLon0.15_PT192H.grib2 2026-04-24 16:35 1.4M
20260424T12Z_MSC_GDPS_AbsoluteVorticity_IsbL-0700_LatLon0.15_PT192H.grib2 2026-04-24 16:35 1.3M
20260424T12Z_MSC_GDPS_AbsoluteVorticity_IsbL-0850_LatLon0.15_PT192H.grib2 2026-04-24 16:35 1.6M
20260424T12Z_MSC_GDPS_AirTemp-Max_AGL-2m_LatLon0.15_PT192H.grib2 2026-04-24 16:35 743K
20260424T12Z_MSC_GDPS_AirTemp-Min_AGL-2m_LatLon0.15_PT192H.grib2 2026-04-24 16:35 790K
20260424T12Z_MSC_GDPS_AirTemp_AGL-120m_LatLon0.15_PT192H.grib2 2026-04-24 16:35 790K
20260424T12Z_MSC_GDPS_AirTemp_AGL-2m_LatLon0.15_PT192H.grib2 2026-04-24 16:35 1.0M
20260424T12Z_MSC_GDPS_AirTemp_AGL-40m_LatLon0.15_PT192H.grib2 2026-04-24 16:35 810K
20260424T12Z_MSC_GDPS_AirTemp_AGL-80m_LatLon0.15_PT192H.grib2 2026-04-24 16:35 799K
20260424T12Z_MSC_GDPS_AirTemp_IsbL-0001_LatLon0.15_PT192H.grib2 2026-04-24 16:35 713K
20260424T12Z_MSC_GDPS_AirTemp_IsbL-0005_LatLon0.15_PT192H.grib2 2026-04-24 16:35 684K
20260424T12Z_MSC_GDPS_AirTemp_IsbL-0010_LatLon0.15_PT192H.grib2 2026-04-24 16:35 755K
20260424T12Z_MSC_GDPS_AirTemp_IsbL-0020_LatLon0.15_PT192H.grib2 2026-04-24 16:35 780K
20260424T12Z_MSC_GDPS_AirTemp_IsbL-0030_LatLon0.15_PT192H.grib2 2026-04-24 16:35 746K
20260424T12Z_MSC_GDPS_AirTemp_IsbL-0050_LatLon0.15_PT192H.grib2 2026-04-24 16:35 802K
20260424T12Z_MSC_GDPS_AirTemp_IsbL-0100_LatLon0.15_PT192H.grib2 2026-04-24 16:35 958K
20260424T12Z_MSC_GDPS_AirTemp_IsbL-0150_LatLon0.15_PT192H.grib2 2026-04-24 16:35 967K
20260424T12Z_MSC_GDPS_AirTemp_IsbL-0175_LatLon0.15_PT192H.grib2 2026-04-24 16:35 956K
20260424T12Z_MSC_GDPS_AirTemp_IsbL-0200_LatLon0.15_PT192H.grib2 2026-04-24 16:35 973K
20260424T12Z_MSC_GDPS_AirTemp_IsbL-0225_LatLon0.15_PT192H.grib2 2026-04-24 16:35 1.0M
20260424T12Z_MSC_GDPS_AirTemp_IsbL-0250_LatLon0.15_PT192H.grib2 2026-04-24 16:35 1.0M
20260424T12Z_MSC_GDPS_AirTemp_IsbL-0275_LatLon0.15_PT192H.grib2 2026-04-24 16:35 1.0M
20260424T12Z_MSC_GDPS_AirTemp_IsbL-0300_LatLon0.15_PT192H.grib2 2026-04-24 16:35 946K
20260424T12Z_MSC_GDPS_AirTemp_IsbL-0350_LatLon0.15_PT192H.grib2 2026-04-24 16:35 926K
20260424T12Z_MSC_GDPS_AirTemp_IsbL-0400_LatLon0.15_PT192H.grib2 2026-04-24 16:35 941K
20260424T12Z_MSC_GDPS_AirTemp_IsbL-0450_LatLon0.15_PT192H.grib2 2026-04-24 16:35 742K
20260424T12Z_MSC_GDPS_AirTemp_IsbL-0500_LatLon0.15_PT192H.grib2 2026-04-24 16:35 764K
20260424T12Z_MSC_GDPS_AirTemp_IsbL-0550_LatLon0.15_PT192H.grib2 2026-04-24 16:35 799K
20260424T12Z_MSC_GDPS_AirTemp_IsbL-0600_LatLon0.15_PT192H.grib2 2026-04-24 16:35 894K
20260424T12Z_MSC_GDPS_AirTemp_IsbL-0650_LatLon0.15_PT192H.grib2 2026-04-24 16:35 919K
20260424T12Z_MSC_GDPS_AirTemp_IsbL-0700_LatLon0.15_PT192H.grib2 2026-04-24 16:35 960K
20260424T12Z_MSC_GDPS_AirTemp_IsbL-0750_LatLon0.15_PT192H.grib2 2026-04-24 16:35 1.0M
20260424T12Z_MSC_GDPS_AirTemp_IsbL-0800_LatLon0.15_PT192H.grib2 2026-04-24 16:35 1.1M
20260424T12Z_MSC_GDPS_AirTemp_IsbL-0850_LatLon0.15_PT192H.grib2 2026-04-24 16:35 1.1M
20260424T12Z_MSC_GDPS_AirTemp_IsbL-0875_LatLon0.15_PT192H.grib2 2026-04-24 16:35 1.2M
20260424T12Z_MSC_GDPS_AirTemp_IsbL-0900_LatLon0.15_PT192H.grib2 2026-04-24 16:35 1.1M
20260424T12Z_MSC_GDPS_AirTemp_IsbL-0925_LatLon0.15_PT192H.grib2 2026-04-24 16:35 1.1M
20260424T12Z_MSC_GDPS_AirTemp_IsbL-0950_LatLon0.15_PT192H.grib2 2026-04-24 16:35 1.1M
20260424T12Z_MSC_GDPS_AirTemp_IsbL-0970_LatLon0.15_PT192H.grib2 2026-04-24 16:35 1.2M
20260424T12Z_MSC_GDPS_AirTemp_IsbL-0985_LatLon0.15_PT192H.grib2 2026-04-24 16:35 1.1M
20260424T12Z_MSC_GDPS_AirTemp_IsbL-1000_LatLon0.15_PT192H.grib2 2026-04-24 16:35 1.1M
20260424T12Z_MSC_GDPS_AirTemp_IsbL-1015_LatLon0.15_PT192H.grib2 2026-04-24 16:35 1.1M
20260424T12Z_MSC_GDPS_Albedo_Sfc_LatLon0.15_PT192H.grib2 2026-04-24 16:35 240K
20260424T12Z_MSC_GDPS_CAPE_Sfc_LatLon0.15_PT192H.grib2 2026-04-24 16:35 4.0M
20260424T12Z_MSC_GDPS_CIN_Sfc_LatLon0.15_PT192H.grib2 2026-04-24 16:35 2.9M
20260424T12Z_MSC_GDPS_CloudWater_EAtm_LatLon0.15_PT192H.grib2 2026-04-24 16:35 537K
20260424T12Z_MSC_GDPS_ConvectivePrecip-Accum_Sfc_LatLon0.15_PT192H.grib2 2026-04-24 16:35 3.7M
20260424T12Z_MSC_GDPS_DewPointDepression_AGL-2m_LatLon0.15_PT192H.grib2 2026-04-24 16:35 759K
20260424T12Z_MSC_GDPS_DewPointDepression_IsbL-0010_LatLon0.15_PT192H.grib2 2026-04-24 16:35 54K
20260424T12Z_MSC_GDPS_DewPointDepression_IsbL-0020_LatLon0.15_PT192H.grib2 2026-04-24 16:35 60K
20260424T12Z_MSC_GDPS_DewPointDepression_IsbL-0030_LatLon0.15_PT192H.grib2 2026-04-24 16:35 78K
20260424T12Z_MSC_GDPS_DewPointDepression_IsbL-0050_LatLon0.15_PT192H.grib2 2026-04-24 16:35 375K
20260424T12Z_MSC_GDPS_DewPointDepression_IsbL-0100_LatLon0.15_PT192H.grib2 2026-04-24 16:35 395K
20260424T12Z_MSC_GDPS_DewPointDepression_IsbL-0150_LatLon0.15_PT192H.grib2 2026-04-24 16:35 461K
20260424T12Z_MSC_GDPS_DewPointDepression_IsbL-0175_LatLon0.15_PT192H.grib2 2026-04-24 16:35 574K
20260424T12Z_MSC_GDPS_DewPointDepression_IsbL-0200_LatLon0.15_PT192H.grib2 2026-04-24 16:35 684K
20260424T12Z_MSC_GDPS_DewPointDepression_IsbL-0225_LatLon0.15_PT192H.grib2 2026-04-24 16:35 786K
20260424T12Z_MSC_GDPS_DewPointDepression_IsbL-0250_LatLon0.15_PT192H.grib2 2026-04-24 16:35 864K
20260424T12Z_MSC_GDPS_DewPointDepression_IsbL-0275_LatLon0.15_PT192H.grib2 2026-04-24 16:35 870K
20260424T12Z_MSC_GDPS_DewPointDepression_IsbL-0300_LatLon0.15_PT192H.grib2 2026-04-24 16:35 906K
20260424T12Z_MSC_GDPS_DewPointDepression_IsbL-0350_LatLon0.15_PT192H.grib2 2026-04-24 16:35 934K
20260424T12Z_MSC_GDPS_DewPointDepression_IsbL-0400_LatLon0.15_PT192H.grib2 2026-04-24 16:35 969K
20260424T12Z_MSC_GDPS_DewPointDepression_IsbL-0450_LatLon0.15_PT192H.grib2 2026-04-24 16:35 1.0M
20260424T12Z_MSC_GDPS_DewPointDepression_IsbL-0500_LatLon0.15_PT192H.grib2 2026-04-24 16:35 1.0M
20260424T12Z_MSC_GDPS_DewPointDepression_IsbL-0550_LatLon0.15_PT192H.grib2 2026-04-24 16:35 1.0M
20260424T12Z_MSC_GDPS_DewPointDepression_IsbL-0600_LatLon0.15_PT192H.grib2 2026-04-24 16:35 1.0M
20260424T12Z_MSC_GDPS_DewPointDepression_IsbL-0650_LatLon0.15_PT192H.grib2 2026-04-24 16:35 1.1M
20260424T12Z_MSC_GDPS_DewPointDepression_IsbL-0700_LatLon0.15_PT192H.grib2 2026-04-24 16:35 1.1M
20260424T12Z_MSC_GDPS_DewPointDepression_IsbL-0750_LatLon0.15_PT192H.grib2 2026-04-24 16:35 1.1M
20260424T12Z_MSC_GDPS_DewPointDepression_IsbL-0800_LatLon0.15_PT192H.grib2 2026-04-24 16:35 1.2M
20260424T12Z_MSC_GDPS_DewPointDepression_IsbL-0850_LatLon0.15_PT192H.grib2 2026-04-24 16:35 1.2M
20260424T12Z_MSC_GDPS_DewPointDepression_IsbL-0875_LatLon0.15_PT192H.grib2 2026-04-24 16:35 1.1M
20260424T12Z_MSC_GDPS_DewPointDepression_IsbL-0900_LatLon0.15_PT192H.grib2 2026-04-24 16:35 1.1M
20260424T12Z_MSC_GDPS_DewPointDepression_IsbL-0925_LatLon0.15_PT192H.grib2 2026-04-24 16:35 1.0M
20260424T12Z_MSC_GDPS_DewPointDepression_IsbL-0950_LatLon0.15_PT192H.grib2 2026-04-24 16:35 1.0M
20260424T12Z_MSC_GDPS_DewPointDepression_IsbL-0970_LatLon0.15_PT192H.grib2 2026-04-24 16:35 1.0M
20260424T12Z_MSC_GDPS_DewPointDepression_IsbL-0985_LatLon0.15_PT192H.grib2 2026-04-24 16:35 1.0M
20260424T12Z_MSC_GDPS_DewPointDepression_IsbL-1000_LatLon0.15_PT192H.grib2 2026-04-24 16:35 1.0M
20260424T12Z_MSC_GDPS_DewPointDepression_IsbL-1015_LatLon0.15_PT192H.grib2 2026-04-24 16:35 913K
20260424T12Z_MSC_GDPS_DewPoint_AGL-2m_LatLon0.15_PT192H.grib2 2026-04-24 16:35 612K
20260424T12Z_MSC_GDPS_DownwardLongwaveRadiationFlux-Accum_Sfc_LatLon0.15_PT192H.grib2 2026-04-24 16:35 661K
20260424T12Z_MSC_GDPS_DownwardShortwaveRadiationFlux-Accum_NTAtm_LatLon0.15_PT192H.grib2 2026-04-24 16:35 226K
20260424T12Z_MSC_GDPS_DownwardShortwaveRadiationFlux-Accum_Sfc_LatLon0.15_PT192H.grib2 2026-04-24 16:35 863K
20260424T12Z_MSC_GDPS_FreezingRain-Accum12h_Sfc_LatLon0.15_PT192H.grib2 2026-04-24 16:35 89K
20260424T12Z_MSC_GDPS_FreezingRain-Accum24h_Sfc_LatLon0.15_PT192H.grib2 2026-04-24 16:35 164K
20260424T12Z_MSC_GDPS_FreezingRain-Accum6h_Sfc_LatLon0.15_PT192H.grib2 2026-04-24 16:35 72K
20260424T12Z_MSC_GDPS_FreezingRain-Accum_Sfc_LatLon0.15_PT192H.grib2 2026-04-24 16:35 560K
20260424T12Z_MSC_GDPS_GeopotentialHeight_IsbL-0001_LatLon0.15_PT192H.grib2 2026-04-24 16:35 373K
20260424T12Z_MSC_GDPS_GeopotentialHeight_IsbL-0005_LatLon0.15_PT192H.grib2 2026-04-24 16:35 488K
20260424T12Z_MSC_GDPS_GeopotentialHeight_IsbL-0010_LatLon0.15_PT192H.grib2 2026-04-24 16:35 481K
20260424T12Z_MSC_GDPS_GeopotentialHeight_IsbL-0020_LatLon0.15_PT192H.grib2 2026-04-24 16:35 411K
20260424T12Z_MSC_GDPS_GeopotentialHeight_IsbL-0030_LatLon0.15_PT192H.grib2 2026-04-24 16:35 565K
20260424T12Z_MSC_GDPS_GeopotentialHeight_IsbL-0050_LatLon0.15_PT192H.grib2 2026-04-24 16:35 564K
20260424T12Z_MSC_GDPS_GeopotentialHeight_IsbL-0100_LatLon0.15_PT192H.grib2 2026-04-24 16:35 609K
20260424T12Z_MSC_GDPS_GeopotentialHeight_IsbL-0150_LatLon0.15_PT192H.grib2 2026-04-24 16:35 631K
20260424T12Z_MSC_GDPS_GeopotentialHeight_IsbL-0175_LatLon0.15_PT192H.grib2 2026-04-24 16:35 474K
20260424T12Z_MSC_GDPS_GeopotentialHeight_IsbL-0200_LatLon0.15_PT192H.grib2 2026-04-24 16:35 640K
20260424T12Z_MSC_GDPS_GeopotentialHeight_IsbL-0225_LatLon0.15_PT192H.grib2 2026-04-24 16:35 643K
20260424T12Z_MSC_GDPS_GeopotentialHeight_IsbL-0250_LatLon0.15_PT192H.grib2 2026-04-24 16:35 642K
20260424T12Z_MSC_GDPS_GeopotentialHeight_IsbL-0275_LatLon0.15_PT192H.grib2 2026-04-24 16:35 644K
20260424T12Z_MSC_GDPS_GeopotentialHeight_IsbL-0300_LatLon0.15_PT192H.grib2 2026-04-24 16:35 642K
20260424T12Z_MSC_GDPS_GeopotentialHeight_IsbL-0350_LatLon0.15_PT192H.grib2 2026-04-24 16:35 630K
20260424T12Z_MSC_GDPS_GeopotentialHeight_IsbL-0400_LatLon0.15_PT192H.grib2 2026-04-24 16:35 623K
20260424T12Z_MSC_GDPS_GeopotentialHeight_IsbL-0450_LatLon0.15_PT192H.grib2 2026-04-24 16:35 616K
20260424T12Z_MSC_GDPS_GeopotentialHeight_IsbL-0500_LatLon0.15_PT192H.grib2 2026-04-24 16:35 536K
20260424T12Z_MSC_GDPS_GeopotentialHeight_IsbL-0550_LatLon0.15_PT192H.grib2 2026-04-24 16:35 532K
20260424T12Z_MSC_GDPS_GeopotentialHeight_IsbL-0600_LatLon0.15_PT192H.grib2 2026-04-24 16:35 696K
20260424T12Z_MSC_GDPS_GeopotentialHeight_IsbL-0650_LatLon0.15_PT192H.grib2 2026-04-24 16:35 694K
20260424T12Z_MSC_GDPS_GeopotentialHeight_IsbL-0700_LatLon0.15_PT192H.grib2 2026-04-24 16:35 690K
20260424T12Z_MSC_GDPS_GeopotentialHeight_IsbL-0750_LatLon0.15_PT192H.grib2 2026-04-24 16:35 694K
20260424T12Z_MSC_GDPS_GeopotentialHeight_IsbL-0800_LatLon0.15_PT192H.grib2 2026-04-24 16:35 708K
20260424T12Z_MSC_GDPS_GeopotentialHeight_IsbL-0850_LatLon0.15_PT192H.grib2 2026-04-24 16:35 714K
20260424T12Z_MSC_GDPS_GeopotentialHeight_IsbL-0875_LatLon0.15_PT192H.grib2 2026-04-24 16:35 719K
20260424T12Z_MSC_GDPS_GeopotentialHeight_IsbL-0900_LatLon0.15_PT192H.grib2 2026-04-24 16:35 725K
20260424T12Z_MSC_GDPS_GeopotentialHeight_IsbL-0925_LatLon0.15_PT192H.grib2 2026-04-24 16:35 733K
20260424T12Z_MSC_GDPS_GeopotentialHeight_IsbL-0950_LatLon0.15_PT192H.grib2 2026-04-24 16:35 741K
20260424T12Z_MSC_GDPS_GeopotentialHeight_IsbL-0970_LatLon0.15_PT192H.grib2 2026-04-24 16:35 752K
20260424T12Z_MSC_GDPS_GeopotentialHeight_IsbL-0985_LatLon0.15_PT192H.grib2 2026-04-24 16:35 768K
20260424T12Z_MSC_GDPS_GeopotentialHeight_IsbL-1000_LatLon0.15_PT192H.grib2 2026-04-24 16:35 791K
20260424T12Z_MSC_GDPS_GeopotentialHeight_IsbL-1015_LatLon0.15_PT192H.grib2 2026-04-24 16:35 813K
20260424T12Z_MSC_GDPS_Humidex_Sfc_LatLon0.15_PT192H.grib2 2026-04-24 16:35 5.3M
20260424T12Z_MSC_GDPS_IcePellets-Accum12h_Sfc_LatLon0.15_PT192H.grib2 2026-04-24 16:35 18K
20260424T12Z_MSC_GDPS_IcePellets-Accum24h_Sfc_LatLon0.15_PT192H.grib2 2026-04-24 16:35 31K
20260424T12Z_MSC_GDPS_IcePellets-Accum6h_Sfc_LatLon0.15_PT192H.grib2 2026-04-24 16:35 16K
20260424T12Z_MSC_GDPS_IcePellets-Accum_Sfc_LatLon0.15_PT192H.grib2 2026-04-24 16:35 205K
20260424T12Z_MSC_GDPS_KIndex_Sfc_LatLon0.15_PT192H.grib2 2026-04-24 16:35 6.5M
20260424T12Z_MSC_GDPS_LatentHeatNetFlux_Sfc_LatLon0.15_PT192H.grib2 2026-04-24 16:35 548K
20260424T12Z_MSC_GDPS_LiftedIndex-MU-VT_IsbL-0500_LatLon0.15_PT192H.grib2 2026-04-24 16:35 5.4M
20260424T12Z_MSC_GDPS_NetLongwaveRadiationFlux-Accum_Sfc_LatLon0.15_PT192H.grib2 2026-04-24 16:35 880K
20260424T12Z_MSC_GDPS_NetShortwaveRadiationFlux-Accum_Sfc_LatLon0.15_PT192H.grib2 2026-04-24 16:35 862K
20260424T12Z_MSC_GDPS_O3MixingRatio_LatLon0.15_PT192H.grib2 2026-04-24 16:51 1.9M
20260424T12Z_MSC_GDPS_O3_EAtm_LatLon0.15_PT192H.grib2 2026-04-24 16:51 2.4M
20260424T12Z_MSC_GDPS_PlanetaryBoundaryLayerHeight_Sfc_LatLon0.15_PT192H.grib2 2026-04-24 16:35 2.5M
20260424T12Z_MSC_GDPS_Precip-Accum12h_Sfc_LatLon0.15_PT192H.grib2 2026-04-24 16:35 4.0M
20260424T12Z_MSC_GDPS_Precip-Accum24h_Sfc_LatLon0.15_PT192H.grib2 2026-04-24 16:35 4.5M
20260424T12Z_MSC_GDPS_Precip-Accum6h_Sfc_LatLon0.15_PT192H.grib2 2026-04-24 16:35 3.5M
20260424T12Z_MSC_GDPS_Precip-Accum_Sfc_LatLon0.15_PT192H.grib2 2026-04-24 16:35 5.4M
20260424T12Z_MSC_GDPS_PrecipRate_Sfc_LatLon0.15_PT192H.grib2 2026-04-24 16:35 3.0M
20260424T12Z_MSC_GDPS_PrecipType-Instant_Sfc_LatLon0.15_PT192H.grib2 2026-04-24 16:35 1.6M
20260424T12Z_MSC_GDPS_Pressure_MSL_LatLon0.15_PT192H.grib2 2026-04-24 16:35 727K
20260424T12Z_MSC_GDPS_Pressure_PVU-1.5_LatLon0.15_PT192H.grib2 2026-04-24 16:35 5.8M
20260424T12Z_MSC_GDPS_Pressure_PVU-1_LatLon0.15_PT192H.grib2 2026-04-24 16:35 6.0M
20260424T12Z_MSC_GDPS_Pressure_PVU-2_LatLon0.15_PT192H.grib2 2026-04-24 16:35 5.6M
20260424T12Z_MSC_GDPS_Pressure_Sfc_LatLon0.15_PT192H.grib2 2026-04-24 16:35 1.1M
20260424T12Z_MSC_GDPS_RadiativeTemp_Sfc_LatLon0.15_PT192H.grib2 2026-04-24 16:35 504K
20260424T12Z_MSC_GDPS_Rain-Accum12h_Sfc_LatLon0.15_PT192H.grib2 2026-04-24 16:35 2.6M
20260424T12Z_MSC_GDPS_Rain-Accum24h_Sfc_LatLon0.15_PT192H.grib2 2026-04-24 16:35 3.1M
20260424T12Z_MSC_GDPS_Rain-Accum6h_Sfc_LatLon0.15_PT192H.grib2 2026-04-24 16:35 2.3M
20260424T12Z_MSC_GDPS_Rain-Accum_Sfc_LatLon0.15_PT192H.grib2 2026-04-24 16:35 4.2M
20260424T12Z_MSC_GDPS_RelativeHumidity_AGL-2m_LatLon0.15_PT192H.grib2 2026-04-24 16:35 1.0M
20260424T12Z_MSC_GDPS_RelativeHumidity_IsbL-0010_LatLon0.15_PT192H.grib2 2026-04-24 16:35 180K
20260424T12Z_MSC_GDPS_RelativeHumidity_IsbL-0020_LatLon0.15_PT192H.grib2 2026-04-24 16:35 214K
20260424T12Z_MSC_GDPS_RelativeHumidity_IsbL-0030_LatLon0.15_PT192H.grib2 2026-04-24 16:35 256K
20260424T12Z_MSC_GDPS_RelativeHumidity_IsbL-0050_LatLon0.15_PT192H.grib2 2026-04-24 16:35 416K
20260424T12Z_MSC_GDPS_RelativeHumidity_IsbL-0100_LatLon0.15_PT192H.grib2 2026-04-24 16:35 342K
20260424T12Z_MSC_GDPS_RelativeHumidity_IsbL-0150_LatLon0.15_PT192H.grib2 2026-04-24 16:35 651K
20260424T12Z_MSC_GDPS_RelativeHumidity_IsbL-0175_LatLon0.15_PT192H.grib2 2026-04-24 16:35 588K
20260424T12Z_MSC_GDPS_RelativeHumidity_IsbL-0200_LatLon0.15_PT192H.grib2 2026-04-24 16:35 703K
20260424T12Z_MSC_GDPS_RelativeHumidity_IsbL-0225_LatLon0.15_PT192H.grib2 2026-04-24 16:35 793K
20260424T12Z_MSC_GDPS_RelativeHumidity_IsbL-0250_LatLon0.15_PT192H.grib2 2026-04-24 16:35 870K
20260424T12Z_MSC_GDPS_RelativeHumidity_IsbL-0275_LatLon0.15_PT192H.grib2 2026-04-24 16:35 888K
20260424T12Z_MSC_GDPS_RelativeHumidity_IsbL-0300_LatLon0.15_PT192H.grib2 2026-04-24 16:35 927K
20260424T12Z_MSC_GDPS_RelativeHumidity_IsbL-0350_LatLon0.15_PT192H.grib2 2026-04-24 16:35 943K
20260424T12Z_MSC_GDPS_RelativeHumidity_IsbL-0400_LatLon0.15_PT192H.grib2 2026-04-24 16:35 967K
20260424T12Z_MSC_GDPS_RelativeHumidity_IsbL-0450_LatLon0.15_PT192H.grib2 2026-04-24 16:35 1.0M
20260424T12Z_MSC_GDPS_RelativeHumidity_IsbL-0500_LatLon0.15_PT192H.grib2 2026-04-24 16:35 1.0M
20260424T12Z_MSC_GDPS_RelativeHumidity_IsbL-0550_LatLon0.15_PT192H.grib2 2026-04-24 16:35 1.0M
20260424T12Z_MSC_GDPS_RelativeHumidity_IsbL-0600_LatLon0.15_PT192H.grib2 2026-04-24 16:35 1.0M
20260424T12Z_MSC_GDPS_RelativeHumidity_IsbL-0650_LatLon0.15_PT192H.grib2 2026-04-24 16:35 1.1M
20260424T12Z_MSC_GDPS_RelativeHumidity_IsbL-0700_LatLon0.15_PT192H.grib2 2026-04-24 16:35 1.1M
20260424T12Z_MSC_GDPS_RelativeHumidity_IsbL-0750_LatLon0.15_PT192H.grib2 2026-04-24 16:35 1.1M
20260424T12Z_MSC_GDPS_RelativeHumidity_IsbL-0800_LatLon0.15_PT192H.grib2 2026-04-24 16:35 1.2M
20260424T12Z_MSC_GDPS_RelativeHumidity_IsbL-0850_LatLon0.15_PT192H.grib2 2026-04-24 16:35 1.3M
20260424T12Z_MSC_GDPS_RelativeHumidity_IsbL-0875_LatLon0.15_PT192H.grib2 2026-04-24 16:35 1.3M
20260424T12Z_MSC_GDPS_RelativeHumidity_IsbL-0900_LatLon0.15_PT192H.grib2 2026-04-24 16:35 1.2M
20260424T12Z_MSC_GDPS_RelativeHumidity_IsbL-0925_LatLon0.15_PT192H.grib2 2026-04-24 16:35 1.2M
20260424T12Z_MSC_GDPS_RelativeHumidity_IsbL-0950_LatLon0.15_PT192H.grib2 2026-04-24 16:35 1.2M
20260424T12Z_MSC_GDPS_RelativeHumidity_IsbL-0970_LatLon0.15_PT192H.grib2 2026-04-24 16:35 1.2M
20260424T12Z_MSC_GDPS_RelativeHumidity_IsbL-0985_LatLon0.15_PT192H.grib2 2026-04-24 16:35 1.2M
20260424T12Z_MSC_GDPS_RelativeHumidity_IsbL-1000_LatLon0.15_PT192H.grib2 2026-04-24 16:35 1.1M
20260424T12Z_MSC_GDPS_RelativeHumidity_IsbL-1015_LatLon0.15_PT192H.grib2 2026-04-24 16:35 1.0M
20260424T12Z_MSC_GDPS_RelativeVorticity_IsbL-0200_LatLon0.15_PT192H.grib2 2026-04-24 16:35 1.4M
20260424T12Z_MSC_GDPS_RelativeVorticity_IsbL-0250_LatLon0.15_PT192H.grib2 2026-04-24 16:35 1.5M
20260424T12Z_MSC_GDPS_RelativeVorticity_IsbL-0500_LatLon0.15_PT192H.grib2 2026-04-24 16:35 1.4M
20260424T12Z_MSC_GDPS_RelativeVorticity_IsbL-0700_LatLon0.15_PT192H.grib2 2026-04-24 16:35 1.6M
20260424T12Z_MSC_GDPS_RelativeVorticity_IsbL-0850_LatLon0.15_PT192H.grib2 2026-04-24 16:35 1.6M
20260424T12Z_MSC_GDPS_Runoff-Accum_Sfc_LatLon0.15_PT192H.grib2 2026-04-24 16:35 126K
20260424T12Z_MSC_GDPS_SensibleHeatNetFlux_Sfc_LatLon0.15_PT192H.grib2 2026-04-24 16:35 654K
20260424T12Z_MSC_GDPS_ShowalterIndex_IsbL-0500_LatLon0.15_PT192H.grib2 2026-04-24 16:35 6.2M
20260424T12Z_MSC_GDPS_Snow-Accum12h_Sfc_LatLon0.15_PT192H.grib2 2026-04-24 16:35 1.4M
20260424T12Z_MSC_GDPS_Snow-Accum24h_Sfc_LatLon0.15_PT192H.grib2 2026-04-24 16:35 1.6M
20260424T12Z_MSC_GDPS_Snow-Accum6h_Sfc_LatLon0.15_PT192H.grib2 2026-04-24 16:35 1.3M
20260424T12Z_MSC_GDPS_Snow-Accum_Sfc_LatLon0.15_PT192H.grib2 2026-04-24 16:35 2.1M
20260424T12Z_MSC_GDPS_SnowDensity_Sfc_LatLon0.15_PT192H.grib2 2026-04-24 16:35 274K
20260424T12Z_MSC_GDPS_SnowDepth_Sfc_LatLon0.15_PT192H.grib2 2026-04-24 16:35 1.8M
20260424T12Z_MSC_GDPS_SoilTemp_DBS-0to10cm_LatLon0.15_PT192H.grib2 2026-04-24 16:35 513K
20260424T12Z_MSC_GDPS_SoilTemp_Sfc_LatLon0.15_PT192H.grib2 2026-04-24 16:35 579K
20260424T12Z_MSC_GDPS_SoilVolumetricIceContent_Sfc_LatLon0.15_PT192H.grib2 2026-04-24 16:35 205K
20260424T12Z_MSC_GDPS_SoilVolumetricWaterContent_DBS-0to10cm_LatLon0.15_PT192H.grib2 2026-04-24 16:35 587K
20260424T12Z_MSC_GDPS_SoilVolumetricWaterContent_DBS-0to1cm_LatLon0.15_PT192H.grib2 2026-04-24 16:35 648K
20260424T12Z_MSC_GDPS_SpecificHumidity_AGL-120m_LatLon0.15_PT192H.grib2 2026-04-24 16:35 1.1M
20260424T12Z_MSC_GDPS_SpecificHumidity_AGL-2m_LatLon0.15_PT192H.grib2 2026-04-24 16:35 1.2M
20260424T12Z_MSC_GDPS_SpecificHumidity_AGL-40m_LatLon0.15_PT192H.grib2 2026-04-24 16:35 1.1M
20260424T12Z_MSC_GDPS_SpecificHumidity_AGL-80m_LatLon0.15_PT192H.grib2 2026-04-24 16:35 1.1M
20260424T12Z_MSC_GDPS_SpecificHumidity_IsbL-0001_LatLon0.15_PT192H.grib2 2026-04-24 16:35 1.1M
20260424T12Z_MSC_GDPS_SpecificHumidity_IsbL-0005_LatLon0.15_PT192H.grib2 2026-04-24 16:35 1.3M
20260424T12Z_MSC_GDPS_SpecificHumidity_IsbL-0010_LatLon0.15_PT192H.grib2 2026-04-24 16:35 1.2M
20260424T12Z_MSC_GDPS_SpecificHumidity_IsbL-0020_LatLon0.15_PT192H.grib2 2026-04-24 16:35 1.2M
20260424T12Z_MSC_GDPS_SpecificHumidity_IsbL-0030_LatLon0.15_PT192H.grib2 2026-04-24 16:35 1.5M
20260424T12Z_MSC_GDPS_SpecificHumidity_IsbL-0050_LatLon0.15_PT192H.grib2 2026-04-24 16:35 1.2M
20260424T12Z_MSC_GDPS_SpecificHumidity_IsbL-0100_LatLon0.15_PT192H.grib2 2026-04-24 16:35 1.3M
20260424T12Z_MSC_GDPS_SpecificHumidity_IsbL-0150_LatLon0.15_PT192H.grib2 2026-04-24 16:35 1.3M
20260424T12Z_MSC_GDPS_SpecificHumidity_IsbL-0175_LatLon0.15_PT192H.grib2 2026-04-24 16:35 1.2M
20260424T12Z_MSC_GDPS_SpecificHumidity_IsbL-0200_LatLon0.15_PT192H.grib2 2026-04-24 16:35 1.3M
20260424T12Z_MSC_GDPS_SpecificHumidity_IsbL-0225_LatLon0.15_PT192H.grib2 2026-04-24 16:35 1.3M
20260424T12Z_MSC_GDPS_SpecificHumidity_IsbL-0250_LatLon0.15_PT192H.grib2 2026-04-24 16:35 1.4M
20260424T12Z_MSC_GDPS_SpecificHumidity_IsbL-0275_LatLon0.15_PT192H.grib2 2026-04-24 16:35 1.3M
20260424T12Z_MSC_GDPS_SpecificHumidity_IsbL-0300_LatLon0.15_PT192H.grib2 2026-04-24 16:35 1.2M
20260424T12Z_MSC_GDPS_SpecificHumidity_IsbL-0350_LatLon0.15_PT192H.grib2 2026-04-24 16:35 1.2M
20260424T12Z_MSC_GDPS_SpecificHumidity_IsbL-0400_LatLon0.15_PT192H.grib2 2026-04-24 16:35 1.4M
20260424T12Z_MSC_GDPS_SpecificHumidity_IsbL-0450_LatLon0.15_PT192H.grib2 2026-04-24 16:35 1.6M
20260424T12Z_MSC_GDPS_SpecificHumidity_IsbL-0500_LatLon0.15_PT192H.grib2 2026-04-24 16:35 1.4M
20260424T12Z_MSC_GDPS_SpecificHumidity_IsbL-0550_LatLon0.15_PT192H.grib2 2026-04-24 16:35 1.6M
20260424T12Z_MSC_GDPS_SpecificHumidity_IsbL-0600_LatLon0.15_PT192H.grib2 2026-04-24 16:35 1.7M
20260424T12Z_MSC_GDPS_SpecificHumidity_IsbL-0650_LatLon0.15_PT192H.grib2 2026-04-24 16:35 1.5M
20260424T12Z_MSC_GDPS_SpecificHumidity_IsbL-0700_LatLon0.15_PT192H.grib2 2026-04-24 16:35 1.6M
20260424T12Z_MSC_GDPS_SpecificHumidity_IsbL-0750_LatLon0.15_PT192H.grib2 2026-04-24 16:35 1.7M
20260424T12Z_MSC_GDPS_SpecificHumidity_IsbL-0800_LatLon0.15_PT192H.grib2 2026-04-24 16:35 1.9M
20260424T12Z_MSC_GDPS_SpecificHumidity_IsbL-0850_LatLon0.15_PT192H.grib2 2026-04-24 16:35 1.9M
20260424T12Z_MSC_GDPS_SpecificHumidity_IsbL-0875_LatLon0.15_PT192H.grib2 2026-04-24 16:35 1.9M
20260424T12Z_MSC_GDPS_SpecificHumidity_IsbL-0900_LatLon0.15_PT192H.grib2 2026-04-24 16:35 1.6M
20260424T12Z_MSC_GDPS_SpecificHumidity_IsbL-0925_LatLon0.15_PT192H.grib2 2026-04-24 16:35 1.6M
20260424T12Z_MSC_GDPS_SpecificHumidity_IsbL-0950_LatLon0.15_PT192H.grib2 2026-04-24 16:35 1.6M
20260424T12Z_MSC_GDPS_SpecificHumidity_IsbL-0970_LatLon0.15_PT192H.grib2 2026-04-24 16:35 1.6M
20260424T12Z_MSC_GDPS_SpecificHumidity_IsbL-0985_LatLon0.15_PT192H.grib2 2026-04-24 16:35 1.5M
20260424T12Z_MSC_GDPS_SpecificHumidity_IsbL-1000_LatLon0.15_PT192H.grib2 2026-04-24 16:35 1.5M
20260424T12Z_MSC_GDPS_SpecificHumidity_IsbL-1015_LatLon0.15_PT192H.grib2 2026-04-24 16:35 1.5M
20260424T12Z_MSC_GDPS_SpecificHumidity_Sfc_LatLon0.15_PT192H.grib2 2026-04-24 16:35 680K
20260424T12Z_MSC_GDPS_Thickness_IsbL-0850to0700_LatLon0.15_PT192H.grib2 2026-04-24 16:35 471K
20260424T12Z_MSC_GDPS_Thickness_IsbL-1000to0500_LatLon0.15_PT192H.grib2 2026-04-24 16:35 375K
20260424T12Z_MSC_GDPS_Thickness_IsbL-1000to0850_LatLon0.15_PT192H.grib2 2026-04-24 16:35 489K
20260424T12Z_MSC_GDPS_TotalCloudCover_Sfc_LatLon0.15_PT192H.grib2 2026-04-24 16:35 833K
20260424T12Z_MSC_GDPS_TotalTotalsIndex_Sfc_LatLon0.15_PT192H.grib2 2026-04-24 16:35 6.2M
20260424T12Z_MSC_GDPS_UVIndex-ClearSky_Sfc_LatLon0.15_PT192H.grib2 2026-04-24 16:51 1.0M
20260424T12Z_MSC_GDPS_UVIndex_Sfc_LatLon0.15_PT192H.grib2 2026-04-24 16:51 1.4M
20260424T12Z_MSC_GDPS_UpwardLongwaveRadiationFlux_NTAtm_LatLon0.15_PT192H.grib2 2026-04-24 16:35 840K
20260424T12Z_MSC_GDPS_VerticalVelocity_IsbL-0200_LatLon0.15_PT192H.grib2 2026-04-24 16:35 1.2M
20260424T12Z_MSC_GDPS_VerticalVelocity_IsbL-0250_LatLon0.15_PT192H.grib2 2026-04-24 16:35 1.1M
20260424T12Z_MSC_GDPS_VerticalVelocity_IsbL-0500_LatLon0.15_PT192H.grib2 2026-04-24 16:35 1.0M
20260424T12Z_MSC_GDPS_VerticalVelocity_IsbL-0600_LatLon0.15_PT192H.grib2 2026-04-24 16:35 1.1M
20260424T12Z_MSC_GDPS_VerticalVelocity_IsbL-0700_LatLon0.15_PT192H.grib2 2026-04-24 16:35 1.4M
20260424T12Z_MSC_GDPS_VerticalVelocity_IsbL-0850_LatLon0.15_PT192H.grib2 2026-04-24 16:35 1.3M
20260424T12Z_MSC_GDPS_WindChill_Sfc_LatLon0.15_PT192H.grib2 2026-04-24 16:35 5.3M
20260424T12Z_MSC_GDPS_WindDir_AGL-10m_LatLon0.15_PT192H.grib2 2026-04-24 16:35 1.3M
20260424T12Z_MSC_GDPS_WindDir_AGL-120m_LatLon0.15_PT192H.grib2 2026-04-24 16:35 1.4M
20260424T12Z_MSC_GDPS_WindDir_AGL-40m_LatLon0.15_PT192H.grib2 2026-04-24 16:35 1.4M
20260424T12Z_MSC_GDPS_WindDir_AGL-80m_LatLon0.15_PT192H.grib2 2026-04-24 16:35 1.4M
20260424T12Z_MSC_GDPS_WindDir_IsbL-0001_LatLon0.15_PT192H.grib2 2026-04-24 16:35 661K
20260424T12Z_MSC_GDPS_WindDir_IsbL-0005_LatLon0.15_PT192H.grib2 2026-04-24 16:35 791K
20260424T12Z_MSC_GDPS_WindDir_IsbL-0010_LatLon0.15_PT192H.grib2 2026-04-24 16:35 835K
20260424T12Z_MSC_GDPS_WindDir_IsbL-0020_LatLon0.15_PT192H.grib2 2026-04-24 16:35 945K
20260424T12Z_MSC_GDPS_WindDir_IsbL-0030_LatLon0.15_PT192H.grib2 2026-04-24 16:35 928K
20260424T12Z_MSC_GDPS_WindDir_IsbL-0050_LatLon0.15_PT192H.grib2 2026-04-24 16:35 966K
20260424T12Z_MSC_GDPS_WindDir_IsbL-0100_LatLon0.15_PT192H.grib2 2026-04-24 16:35 1.0M
20260424T12Z_MSC_GDPS_WindDir_IsbL-0150_LatLon0.15_PT192H.grib2 2026-04-24 16:35 1.0M
20260424T12Z_MSC_GDPS_WindDir_IsbL-0175_LatLon0.15_PT192H.grib2 2026-04-24 16:35 1.0M
20260424T12Z_MSC_GDPS_WindDir_IsbL-0200_LatLon0.15_PT192H.grib2 2026-04-24 16:35 1.1M
20260424T12Z_MSC_GDPS_WindDir_IsbL-0225_LatLon0.15_PT192H.grib2 2026-04-24 16:35 1.1M
20260424T12Z_MSC_GDPS_WindDir_IsbL-0250_LatLon0.15_PT192H.grib2 2026-04-24 16:35 1.1M
20260424T12Z_MSC_GDPS_WindDir_IsbL-0275_LatLon0.15_PT192H.grib2 2026-04-24 16:35 1.2M
20260424T12Z_MSC_GDPS_WindDir_IsbL-0300_LatLon0.15_PT192H.grib2 2026-04-24 16:35 1.2M
20260424T12Z_MSC_GDPS_WindDir_IsbL-0350_LatLon0.15_PT192H.grib2 2026-04-24 16:35 1.2M
20260424T12Z_MSC_GDPS_WindDir_IsbL-0400_LatLon0.15_PT192H.grib2 2026-04-24 16:35 1.2M
20260424T12Z_MSC_GDPS_WindDir_IsbL-0450_LatLon0.15_PT192H.grib2 2026-04-24 16:35 1.3M
20260424T12Z_MSC_GDPS_WindDir_IsbL-0500_LatLon0.15_PT192H.grib2 2026-04-24 16:35 1.3M
20260424T12Z_MSC_GDPS_WindDir_IsbL-0550_LatLon0.15_PT192H.grib2 2026-04-24 16:35 1.4M
20260424T12Z_MSC_GDPS_WindDir_IsbL-0600_LatLon0.15_PT192H.grib2 2026-04-24 16:35 1.4M
20260424T12Z_MSC_GDPS_WindDir_IsbL-0650_LatLon0.15_PT192H.grib2 2026-04-24 16:35 1.5M
20260424T12Z_MSC_GDPS_WindDir_IsbL-0700_LatLon0.15_PT192H.grib2 2026-04-24 16:35 1.6M
20260424T12Z_MSC_GDPS_WindDir_IsbL-0750_LatLon0.15_PT192H.grib2 2026-04-24 16:35 1.7M
20260424T12Z_MSC_GDPS_WindDir_IsbL-0800_LatLon0.15_PT192H.grib2 2026-04-24 16:35 1.8M
20260424T12Z_MSC_GDPS_WindDir_IsbL-0850_LatLon0.15_PT192H.grib2 2026-04-24 16:35 1.9M
20260424T12Z_MSC_GDPS_WindDir_IsbL-0875_LatLon0.15_PT192H.grib2 2026-04-24 16:35 2.0M
20260424T12Z_MSC_GDPS_WindDir_IsbL-0900_LatLon0.15_PT192H.grib2 2026-04-24 16:35 2.0M
20260424T12Z_MSC_GDPS_WindDir_IsbL-0925_LatLon0.15_PT192H.grib2 2026-04-24 16:35 2.0M
20260424T12Z_MSC_GDPS_WindDir_IsbL-0950_LatLon0.15_PT192H.grib2 2026-04-24 16:35 2.0M
20260424T12Z_MSC_GDPS_WindDir_IsbL-0970_LatLon0.15_PT192H.grib2 2026-04-24 16:35 2.0M
20260424T12Z_MSC_GDPS_WindDir_IsbL-0985_LatLon0.15_PT192H.grib2 2026-04-24 16:35 2.0M
20260424T12Z_MSC_GDPS_WindDir_IsbL-1000_LatLon0.15_PT192H.grib2 2026-04-24 16:35 2.1M
20260424T12Z_MSC_GDPS_WindDir_IsbL-1015_LatLon0.15_PT192H.grib2 2026-04-24 16:35 2.0M
20260424T12Z_MSC_GDPS_WindGust-Max_AGL-10m_LatLon0.15_PT192H.grib2 2026-04-24 16:35 2.3M
20260424T12Z_MSC_GDPS_WindGust-Min_AGL-10m_LatLon0.15_PT192H.grib2 2026-04-24 16:35 2.2M
20260424T12Z_MSC_GDPS_WindGust_AGL-10m_LatLon0.15_PT192H.grib2 2026-04-24 16:35 2.2M
20260424T12Z_MSC_GDPS_WindSpeed_AGL-10m_LatLon0.15_PT192H.grib2 2026-04-24 16:35 1.1M
20260424T12Z_MSC_GDPS_WindSpeed_AGL-120m_LatLon0.15_PT192H.grib2 2026-04-24 16:35 1.2M
20260424T12Z_MSC_GDPS_WindSpeed_AGL-40m_LatLon0.15_PT192H.grib2 2026-04-24 16:35 1.2M
20260424T12Z_MSC_GDPS_WindSpeed_AGL-80m_LatLon0.15_PT192H.grib2 2026-04-24 16:35 1.2M
20260424T12Z_MSC_GDPS_WindSpeed_IsbL-0001_LatLon0.15_PT192H.grib2 2026-04-24 16:35 646K
20260424T12Z_MSC_GDPS_WindSpeed_IsbL-0005_LatLon0.15_PT192H.grib2 2026-04-24 16:35 684K
20260424T12Z_MSC_GDPS_WindSpeed_IsbL-0010_LatLon0.15_PT192H.grib2 2026-04-24 16:35 618K
20260424T12Z_MSC_GDPS_WindSpeed_IsbL-0020_LatLon0.15_PT192H.grib2 2026-04-24 16:35 657K
20260424T12Z_MSC_GDPS_WindSpeed_IsbL-0030_LatLon0.15_PT192H.grib2 2026-04-24 16:35 850K
20260424T12Z_MSC_GDPS_WindSpeed_IsbL-0050_LatLon0.15_PT192H.grib2 2026-04-24 16:35 896K
20260424T12Z_MSC_GDPS_WindSpeed_IsbL-0100_LatLon0.15_PT192H.grib2 2026-04-24 16:35 1.1M
20260424T12Z_MSC_GDPS_WindSpeed_IsbL-0150_LatLon0.15_PT192H.grib2 2026-04-24 16:35 937K
20260424T12Z_MSC_GDPS_WindSpeed_IsbL-0175_LatLon0.15_PT192H.grib2 2026-04-24 16:35 1.0M
20260424T12Z_MSC_GDPS_WindSpeed_IsbL-0200_LatLon0.15_PT192H.grib2 2026-04-24 16:35 1.1M
20260424T12Z_MSC_GDPS_WindSpeed_IsbL-0225_LatLon0.15_PT192H.grib2 2026-04-24 16:35 1.1M
20260424T12Z_MSC_GDPS_WindSpeed_IsbL-0250_LatLon0.15_PT192H.grib2 2026-04-24 16:35 1.1M
20260424T12Z_MSC_GDPS_WindSpeed_IsbL-0275_LatLon0.15_PT192H.grib2 2026-04-24 16:35 1.1M
20260424T12Z_MSC_GDPS_WindSpeed_IsbL-0300_LatLon0.15_PT192H.grib2 2026-04-24 16:35 1.1M
20260424T12Z_MSC_GDPS_WindSpeed_IsbL-0350_LatLon0.15_PT192H.grib2 2026-04-24 16:35 1.1M
20260424T12Z_MSC_GDPS_WindSpeed_IsbL-0400_LatLon0.15_PT192H.grib2 2026-04-24 16:35 1.1M
20260424T12Z_MSC_GDPS_WindSpeed_IsbL-0450_LatLon0.15_PT192H.grib2 2026-04-24 16:35 1.1M
20260424T12Z_MSC_GDPS_WindSpeed_IsbL-0500_LatLon0.15_PT192H.grib2 2026-04-24 16:35 1.1M
20260424T12Z_MSC_GDPS_WindSpeed_IsbL-0550_LatLon0.15_PT192H.grib2 2026-04-24 16:35 1.1M
20260424T12Z_MSC_GDPS_WindSpeed_IsbL-0600_LatLon0.15_PT192H.grib2 2026-04-24 16:35 1.4M
20260424T12Z_MSC_GDPS_WindSpeed_IsbL-0650_LatLon0.15_PT192H.grib2 2026-04-24 16:35 1.4M
20260424T12Z_MSC_GDPS_WindSpeed_IsbL-0700_LatLon0.15_PT192H.grib2 2026-04-24 16:35 1.5M
20260424T12Z_MSC_GDPS_WindSpeed_IsbL-0750_LatLon0.15_PT192H.grib2 2026-04-24 16:35 1.6M
20260424T12Z_MSC_GDPS_WindSpeed_IsbL-0800_LatLon0.15_PT192H.grib2 2026-04-24 16:35 1.8M
20260424T12Z_MSC_GDPS_WindSpeed_IsbL-0850_LatLon0.15_PT192H.grib2 2026-04-24 16:35 1.8M
20260424T12Z_MSC_GDPS_WindSpeed_IsbL-0875_LatLon0.15_PT192H.grib2 2026-04-24 16:35 1.9M
20260424T12Z_MSC_GDPS_WindSpeed_IsbL-0900_LatLon0.15_PT192H.grib2 2026-04-24 16:35 1.9M
20260424T12Z_MSC_GDPS_WindSpeed_IsbL-0925_LatLon0.15_PT192H.grib2 2026-04-24 16:35 1.9M
20260424T12Z_MSC_GDPS_WindSpeed_IsbL-0950_LatLon0.15_PT192H.grib2 2026-04-24 16:35 1.9M
20260424T12Z_MSC_GDPS_WindSpeed_IsbL-0970_LatLon0.15_PT192H.grib2 2026-04-24 16:35 1.8M
20260424T12Z_MSC_GDPS_WindSpeed_IsbL-0985_LatLon0.15_PT192H.grib2 2026-04-24 16:35 1.8M
20260424T12Z_MSC_GDPS_WindSpeed_IsbL-1000_LatLon0.15_PT192H.grib2 2026-04-24 16:35 1.8M
20260424T12Z_MSC_GDPS_WindSpeed_IsbL-1015_LatLon0.15_PT192H.grib2 2026-04-24 16:35 1.8M
20260424T12Z_MSC_GDPS_WindU_AGL-10m_LatLon0.15_PT192H.grib2 2026-04-24 16:35 1.3M
20260424T12Z_MSC_GDPS_WindU_AGL-120m_LatLon0.15_PT192H.grib2 2026-04-24 16:35 1.0M
20260424T12Z_MSC_GDPS_WindU_AGL-40m_LatLon0.15_PT192H.grib2 2026-04-24 16:35 971K
20260424T12Z_MSC_GDPS_WindU_AGL-80m_LatLon0.15_PT192H.grib2 2026-04-24 16:35 1.0M
20260424T12Z_MSC_GDPS_WindU_IsbL-0001_LatLon0.15_PT192H.grib2 2026-04-24 16:35 644K
20260424T12Z_MSC_GDPS_WindU_IsbL-0005_LatLon0.15_PT192H.grib2 2026-04-24 16:35 682K
20260424T12Z_MSC_GDPS_WindU_IsbL-0010_LatLon0.15_PT192H.grib2 2026-04-24 16:35 692K
20260424T12Z_MSC_GDPS_WindU_IsbL-0020_LatLon0.15_PT192H.grib2 2026-04-24 16:35 722K
20260424T12Z_MSC_GDPS_WindU_IsbL-0030_LatLon0.15_PT192H.grib2 2026-04-24 16:35 724K
20260424T12Z_MSC_GDPS_WindU_IsbL-0050_LatLon0.15_PT192H.grib2 2026-04-24 16:35 686K
20260424T12Z_MSC_GDPS_WindU_IsbL-0100_LatLon0.15_PT192H.grib2 2026-04-24 16:35 911K
20260424T12Z_MSC_GDPS_WindU_IsbL-0150_LatLon0.15_PT192H.grib2 2026-04-24 16:35 1.0M
20260424T12Z_MSC_GDPS_WindU_IsbL-0175_LatLon0.15_PT192H.grib2 2026-04-24 16:35 1.0M
20260424T12Z_MSC_GDPS_WindU_IsbL-0200_LatLon0.15_PT192H.grib2 2026-04-24 16:35 839K
20260424T12Z_MSC_GDPS_WindU_IsbL-0225_LatLon0.15_PT192H.grib2 2026-04-24 16:35 851K
20260424T12Z_MSC_GDPS_WindU_IsbL-0250_LatLon0.15_PT192H.grib2 2026-04-24 16:35 852K
20260424T12Z_MSC_GDPS_WindU_IsbL-0275_LatLon0.15_PT192H.grib2 2026-04-24 16:35 880K
20260424T12Z_MSC_GDPS_WindU_IsbL-0300_LatLon0.15_PT192H.grib2 2026-04-24 16:35 871K
20260424T12Z_MSC_GDPS_WindU_IsbL-0350_LatLon0.15_PT192H.grib2 2026-04-24 16:35 885K
20260424T12Z_MSC_GDPS_WindU_IsbL-0400_LatLon0.15_PT192H.grib2 2026-04-24 16:35 887K
20260424T12Z_MSC_GDPS_WindU_IsbL-0450_LatLon0.15_PT192H.grib2 2026-04-24 16:35 1.1M
20260424T12Z_MSC_GDPS_WindU_IsbL-0500_LatLon0.15_PT192H.grib2 2026-04-24 16:35 1.1M
20260424T12Z_MSC_GDPS_WindU_IsbL-0550_LatLon0.15_PT192H.grib2 2026-04-24 16:35 1.1M
20260424T12Z_MSC_GDPS_WindU_IsbL-0600_LatLon0.15_PT192H.grib2 2026-04-24 16:35 1.1M
20260424T12Z_MSC_GDPS_WindU_IsbL-0650_LatLon0.15_PT192H.grib2 2026-04-24 16:35 1.2M
20260424T12Z_MSC_GDPS_WindU_IsbL-0700_LatLon0.15_PT192H.grib2 2026-04-24 16:35 1.2M
20260424T12Z_MSC_GDPS_WindU_IsbL-0750_LatLon0.15_PT192H.grib2 2026-04-24 16:35 1.3M
20260424T12Z_MSC_GDPS_WindU_IsbL-0800_LatLon0.15_PT192H.grib2 2026-04-24 16:35 1.4M
20260424T12Z_MSC_GDPS_WindU_IsbL-0850_LatLon0.15_PT192H.grib2 2026-04-24 16:35 1.4M
20260424T12Z_MSC_GDPS_WindU_IsbL-0875_LatLon0.15_PT192H.grib2 2026-04-24 16:35 1.5M
20260424T12Z_MSC_GDPS_WindU_IsbL-0900_LatLon0.15_PT192H.grib2 2026-04-24 16:35 1.5M
20260424T12Z_MSC_GDPS_WindU_IsbL-0925_LatLon0.15_PT192H.grib2 2026-04-24 16:35 1.5M
20260424T12Z_MSC_GDPS_WindU_IsbL-0950_LatLon0.15_PT192H.grib2 2026-04-24 16:35 1.4M
20260424T12Z_MSC_GDPS_WindU_IsbL-0970_LatLon0.15_PT192H.grib2 2026-04-24 16:35 1.4M
20260424T12Z_MSC_GDPS_WindU_IsbL-0985_LatLon0.15_PT192H.grib2 2026-04-24 16:35 1.4M
20260424T12Z_MSC_GDPS_WindU_IsbL-1000_LatLon0.15_PT192H.grib2 2026-04-24 16:35 1.4M
20260424T12Z_MSC_GDPS_WindU_IsbL-1015_LatLon0.15_PT192H.grib2 2026-04-24 16:35 1.4M
20260424T12Z_MSC_GDPS_WindV_AGL-10m_LatLon0.15_PT192H.grib2 2026-04-24 16:35 1.6M
20260424T12Z_MSC_GDPS_WindV_AGL-120m_LatLon0.15_PT192H.grib2 2026-04-24 16:35 968K
20260424T12Z_MSC_GDPS_WindV_AGL-40m_LatLon0.15_PT192H.grib2 2026-04-24 16:35 963K
20260424T12Z_MSC_GDPS_WindV_AGL-80m_LatLon0.15_PT192H.grib2 2026-04-24 16:35 969K
20260424T12Z_MSC_GDPS_WindV_IsbL-0001_LatLon0.15_PT192H.grib2 2026-04-24 16:35 670K
20260424T12Z_MSC_GDPS_WindV_IsbL-0005_LatLon0.15_PT192H.grib2 2026-04-24 16:35 754K
20260424T12Z_MSC_GDPS_WindV_IsbL-0010_LatLon0.15_PT192H.grib2 2026-04-24 16:35 784K
20260424T12Z_MSC_GDPS_WindV_IsbL-0020_LatLon0.15_PT192H.grib2 2026-04-24 16:35 839K
20260424T12Z_MSC_GDPS_WindV_IsbL-0030_LatLon0.15_PT192H.grib2 2026-04-24 16:35 839K
20260424T12Z_MSC_GDPS_WindV_IsbL-0050_LatLon0.15_PT192H.grib2 2026-04-24 16:35 973K
20260424T12Z_MSC_GDPS_WindV_IsbL-0100_LatLon0.15_PT192H.grib2 2026-04-24 16:35 1.0M
20260424T12Z_MSC_GDPS_WindV_IsbL-0150_LatLon0.15_PT192H.grib2 2026-04-24 16:35 1.0M
20260424T12Z_MSC_GDPS_WindV_IsbL-0175_LatLon0.15_PT192H.grib2 2026-04-24 16:35 1.0M
20260424T12Z_MSC_GDPS_WindV_IsbL-0200_LatLon0.15_PT192H.grib2 2026-04-24 16:35 1.0M
20260424T12Z_MSC_GDPS_WindV_IsbL-0225_LatLon0.15_PT192H.grib2 2026-04-24 16:35 848K
20260424T12Z_MSC_GDPS_WindV_IsbL-0250_LatLon0.15_PT192H.grib2 2026-04-24 16:35 848K
20260424T12Z_MSC_GDPS_WindV_IsbL-0275_LatLon0.15_PT192H.grib2 2026-04-24 16:35 873K
20260424T12Z_MSC_GDPS_WindV_IsbL-0300_LatLon0.15_PT192H.grib2 2026-04-24 16:35 861K
20260424T12Z_MSC_GDPS_WindV_IsbL-0350_LatLon0.15_PT192H.grib2 2026-04-24 16:35 873K
20260424T12Z_MSC_GDPS_WindV_IsbL-0400_LatLon0.15_PT192H.grib2 2026-04-24 16:35 874K
20260424T12Z_MSC_GDPS_WindV_IsbL-0450_LatLon0.15_PT192H.grib2 2026-04-24 16:35 1.1M
20260424T12Z_MSC_GDPS_WindV_IsbL-0500_LatLon0.15_PT192H.grib2 2026-04-24 16:35 1.1M
20260424T12Z_MSC_GDPS_WindV_IsbL-0550_LatLon0.15_PT192H.grib2 2026-04-24 16:35 1.1M
20260424T12Z_MSC_GDPS_WindV_IsbL-0600_LatLon0.15_PT192H.grib2 2026-04-24 16:35 1.1M
20260424T12Z_MSC_GDPS_WindV_IsbL-0650_LatLon0.15_PT192H.grib2 2026-04-24 16:35 1.2M
20260424T12Z_MSC_GDPS_WindV_IsbL-0700_LatLon0.15_PT192H.grib2 2026-04-24 16:35 1.2M
20260424T12Z_MSC_GDPS_WindV_IsbL-0750_LatLon0.15_PT192H.grib2 2026-04-24 16:35 1.3M
20260424T12Z_MSC_GDPS_WindV_IsbL-0800_LatLon0.15_PT192H.grib2 2026-04-24 16:35 1.3M
20260424T12Z_MSC_GDPS_WindV_IsbL-0850_LatLon0.15_PT192H.grib2 2026-04-24 16:35 1.4M
20260424T12Z_MSC_GDPS_WindV_IsbL-0875_LatLon0.15_PT192H.grib2 2026-04-24 16:35 1.4M
20260424T12Z_MSC_GDPS_WindV_IsbL-0900_LatLon0.15_PT192H.grib2 2026-04-24 16:35 1.4M
20260424T12Z_MSC_GDPS_WindV_IsbL-0925_LatLon0.15_PT192H.grib2 2026-04-24 16:35 1.4M
20260424T12Z_MSC_GDPS_WindV_IsbL-0950_LatLon0.15_PT192H.grib2 2026-04-24 16:35 1.4M
20260424T12Z_MSC_GDPS_WindV_IsbL-0970_LatLon0.15_PT192H.grib2 2026-04-24 16:35 1.4M
20260424T12Z_MSC_GDPS_WindV_IsbL-0985_LatLon0.15_PT192H.grib2 2026-04-24 16:35 1.4M
20260424T12Z_MSC_GDPS_WindV_IsbL-1000_LatLon0.15_PT192H.grib2 2026-04-24 16:35 1.4M
20260424T12Z_MSC_GDPS_WindV_IsbL-1015_LatLon0.15_PT192H.grib2 2026-04-24 16:35 1.6M